Skip Navigation LinksWinter-2013

Pudding 10k 2013
PosNumNameCatClubTime
1325David FulfordMHoad Hill Harriers00:33:28
2324Bobby AtkinsonMV55Barrow & Furness Striders AC00:33:28
3260Mark WalshMEllenbrough AC00:34:26
4246Philip LoweryMV50Lancaster & Morecambe00:35:24
5245Kieran RowlandsMLancaster & Morecambe00:35:34
6281Jamie LuxmooreMAmbleside AC00:35:55
7317Robert MoffattMHowgill Harriers00:36:34
8356Will RissMU20Barrow & Furness Striders AC00:36:43
9314Raymond JonesMV50Barrow & Furness Striders AC00:36:46
1097Grant JohnsonMWalney Wind Cheetahs00:36:50
11374Kil JacksonMUnattached00:37:08
12220Colin GrahamMUnattached00:37:08
13241William SissonMUnattached00:37:30
14350Rob WynneMV50Keswick AC00:37:33
15272Andrew MeskimmonMV45Dewsbury RR00:37:36
16261Stuart AckerleyMEllenbrough AC00:37:42
17326Chris HowieMV45Hoad Hill Harriers00:37:47
18187Alan McKeeMV45West Cumbria Tri00:38:20
19247Sue BecconsallFV50Bingley Harriers00:38:24
20330Pippa MaddaysFV35Keswick AC00:38:28
21298Gary DoverMV50Hoad Hill Harriers00:38:29
22365Kevin RobsonMUnattached00:38:43
23168Mike WalshMV60Kendal AC00:39:10
24162Kevin ScottMV40Unattached00:39:19
2543Robert ReayMUnattached00:39:22
26237Alan CoulstonMUnattached00:39:25
27315Sean RobinsonMHowgill Harriers00:39:57
28163Danny BoufflerMBarrow & Furness Striders AC00:39:57
29243Christopher SnellMKendal AC00:40:05
30259Peter SandfordMV55Dallam RR00:40:17
31110Will RevellMWalney Wind Cheetahs00:40:30
32305Duncan ElgyMUlverston Tri00:40:34
33341Mark SimmondsMV50Unattached00:40:38
34310Joe MurphyMParkside Panthers00:40:48
35244Paul FarrenMV50Bentham Beagles00:41:17
36188Shaun CavanaghMV45Cumberland AC00:41:21
37274Tom SouthwardMHoad Hill Harriers00:41:24
38270Claire WilsonFKendal AC00:41:30
39207Matthew BaconMAllithwaite + District00:41:41
4070Dave WilkinsonMV55Bowland Fell Runners00:41:47
41359Rebecca RennieFUnattached00:41:50
42158John HalliwellMV50Manchester Harriers00:41:52
43295Thomas YatesMDallam RR00:41:57
44368Cian NuttMHoad Hill Harriers00:41:59
45232Helen WoodleyFV35Allithwaite + District00:42:06
46148Steve HillierMWest Cheshire AC00:42:10
47265Kathleen CrispFV40Barrow & Furness Striders AC00:42:10
48376Neil GordonMU20Hoad Hill Harriers00:42:23
49184Craig MarshMKeswick AC00:42:25
5036DG OvertonMV65Keswick AC00:42:28
51239Andrew QuinnMSpectrum Striders00:42:39
52103Gary WoodhouseMV40Parkside Panthers00:42:41
53307Steven BattyMV50Walney Wind Cheetahs00:42:48
54228Paul BaymanMUnattached00:42:54
55321Jamie YorkMUnattached00:43:13
56278Glen TraversMV45Walney Wind Cheetahs00:43:21
57204Stephen DavisMUnattached00:43:31
58124Jade GilchristFUnattached00:43:37
59347Erik HamptonMV40Hoad Hill Harriers00:43:39
60297Nigel GarnettMV55Kendal AC00:43:44
61195Ian JonesMV55Walney Wind Cheetahs00:43:47
62267Adrian NewnhamMV60Hoad Hill Harriers00:43:48
63316Oliver ForlizziMU20Hoad Hill Harriers00:43:54
64240Karen Ann Maggio-PoyntzFV40Walney Wind Cheetahs00:43:58
65176Darren CassleyMV45Unattached00:44:12
6658David WilkinsonMV50Lancaster & Morecambe00:44:22
67164Sarah GrisdaleFUnattached00:44:24
68351Mark RobinsonMUnattached00:44:30
69377Jamie BrysonMU20Hoad Hill Harriers00:44:40
70344Sam MasonMUnattached00:44:49
7156Nigel AtkinsonMV45Unattached00:44:51
72233Kath AthertonFV35Unattached00:44:53
73159Paul McKennyMV50Ulverston Tri00:44:58
74312Matthew BeechamMUnattached00:45:03
75262Curtis JacksonMU20Hoad Hill Harriers00:45:04
76258Hayley HodgsonFV45Keswick AC00:45:09
77331Symon FraserMU20Unattached00:45:10
78311Margaret MurphyFParkside Panthers00:45:12
79369Robert MulgrewMV45Parkside Panthers00:45:24
80304Paul ScribbansMV40Unattached00:45:26
8135Mark LeverMWalney Wind Cheetahs00:45:27
82318Jack PearaeMU20Hoad Hill Harriers00:45:29
83170John BamforthMV45Unattached00:45:34
84296Sophie SeddonFU20Barrow & Furness Striders AC00:45:51
85353Euan McKinnonMV40Ulverston Tri00:45:58
86185Owen WestonMUnattached00:46:08
87257Siobhan BrewerFV40Keswick AC00:46:10
88346M JewellMV55Black Combe Runners00:46:10
89255Stephen BraithwaiteMV40Helm Hill Runners00:46:13
90275Colin BennMV60Black Combe Runners00:46:23
9191Christine AdamsFV55Walney Wind Cheetahs00:46:25
92289Steven TysonMV45Unattached00:46:28
93354Andrew GrittinsMV50Black Combe Runners00:46:31
94222Joshua FlowerMUnattached00:46:31
95269David SpencerMV75Barrow & Furness Striders AC00:46:44
96334Paul CaineMHoad Hill Harriers00:46:56
97288Steven WestrayMV40Unattached00:47:02
98333Karen MacKinnonFV40Hoad Hill Harriers00:47:06
9973Keith HarrisMV40Unattached00:47:07
100322David HuddlestonMUnattached00:47:11
101173William StaniardMV45Manchester Harriers00:47:16
102301Paul SewellMV65Dallam RR00:47:18
103313Katie SavageFBarrow & Furness Striders AC00:47:18
10466Matthew VinerMUnattached00:47:20
105156Terry MorrisMV45Bentham Beagles00:47:20
106217Nigel RawlingsMV55Manchester Harriers00:47:41
107235Steve McCallMV50Manchester Harriers00:47:46
108268Lis MuldoonFV35Unattached00:47:47
10944Gregory LambertMV60Lancaster & Morecambe00:47:50
110213Kev KendalMV40Howgill Harriers00:47:57
111345Eileen PunFUnattached00:47:57
112277Kerryna TraversFV40Parkside Panthers00:47:59
113370Karen OldhamFV45Parkside Panthers00:48:00
11465Matt GrovesMUnattached00:48:03
11575Natasha PooleFV40Unattached00:48:09
116375Matthew PearyMUnattached00:48:16
117208Caroline MuhamadFV40Unattached00:48:25
11871Sonja FosterFV40Parkside Panthers00:48:28
119238Vicki HindleFV35Bentham Beagles00:48:31
120179Peter IonMV70Kendal AC00:48:32
121266Peter JudgeMV45Unattached00:48:45
122329Michael HallMV45Unattached00:48:49
123214Bianca DyerFV40Kendal tri00:48:58
124177Rob SmithMV60Bentham Beagles00:49:11
125183Louise WinterFV35Newmark AC00:49:16
12651Dave PiperMTrentham RC00:49:18
12769Emma GrahamFV35St Bees Triers00:49:20
12857Carole WilkinsonFV50Lancaster & Morecambe00:49:23
129225Matt AtkinsonMKendal tri00:49:26
130200Mark SpeddingMUlverston Tri00:49:30
131373Annette ChallinorFV35Hoad Hill Harriers00:49:30
132139Graeme ParkMV40Unattached00:49:38
133117Paul KellyMV45Unattached00:50:00
13485Jeff McCullyMV45Walney Wind Cheetahs00:50:03
135349John HodgsonMV65Dallam RR00:50:13
13638Simon RichardsonMV40Unattached00:50:19
137190Zoe MarshFUnattached00:50:21
138284Reuren LindsayMU16Air Cadets00:50:23
139165Gareth JohnstoneMV40Unattached00:50:26
140182James CooperMUnattached00:50:29
14177John GreenwoodMV55Walney Wind Cheetahs00:50:33
142371Helen MoffattFV45Unattached00:50:33
143140Kate MorrisFBentham Beagles00:50:35
144226Rebecca AtkinsonFHelm Hill Runners00:50:35
145169Lindsay HarrodFV45Helm Hill Runners00:50:40
146210Gemma WaterworthFKeswick AC00:50:40
147122Yvonne RoseFV40Unattached00:50:50
148282Conner RavenMWalney Wind Cheetahs00:50:52
14987Diane StretchFWalney Wind Cheetahs00:50:52
150180Michelle LarkinFParkside Panthers00:50:54
151320Jane LaycockFV65Ambleside AC00:51:00
152116Simon BroomfieldMV40Unattached00:51:01
153234Colin MageeMV45Unattached00:51:05
154128Jack WorthingtonMUnattached00:51:05
155146Wendy SherringtonFV50Unattached00:51:07
156335Emma ThompsonFUnattached00:51:07
157206Sharon BullockFV35Kendal AC00:51:18
158132Helena LewisFV45Lancaster & Morecambe00:51:18
159283Steve WoodMV55Barrow & Furness Striders AC00:51:20
160211Cathrine GrisdaleFV55Parkside Panthers00:51:35
161299Melissa GreavesFParkside Panthers00:51:35
162293Howard GravesMV65Unattached00:51:42
163249Jools FarrowFV40Hoad Hill Harriers00:51:46
16478Suzanne BoyleFV40Walney Wind Cheetahs00:52:07
165194Donna SpeirsFV45Walney Wind Cheetahs00:52:09
166276Daniel ChapmanMUnattached00:52:20
167120Philip EverettMUnattached00:52:41
168342Ross CollingsMUnattached00:52:48
169199Alastair BramwellMV45Unattached00:52:49
170106Sarah CassidyFUnattached00:52:50
17190Claire NeedhamFWalney Wind Cheetahs00:52:51
172149Ann StempFV45Unattached00:52:51
173161Paul CamptonMV70Unattached00:52:57
174328Esther SmithMHoad Hill Harriers00:53:05
175203Jeremy HiscockMUnattached00:53:05
176253Julia JacksonFV35Unattached00:53:06
177332Mike FawcettMV60Hoad Hill Harriers00:53:06
178147Marie SmythFUnattached00:53:08
179340Alan WrightMUnattached00:53:12
180294Rob HoustonMUnattached00:53:12
181264Nigel HutchinsonMV55Unattached00:53:17
182229Michael KeeleyMV60Manchester Harriers00:53:22
183352Tracy PotterFUnattached00:53:28
184175Gary VernonMV45Fetcheveryone RC00:53:36
185254Peter JacksonMV60Unattached00:53:40
18629Gay EastoeFV60Alnwick Harriers00:53:42
18728Richard EastoeMV55Alnwick Harriers00:53:42
188144Jessica WallaceFU20Unattached00:53:45
189218Helen SugarsFV35Hoad Hill Harriers00:53:46
190186Dave RawlinsonMUnattached00:53:57
191109Claire HaughianFWalney Wind Cheetahs00:54:01
192285Roger LindsayMV45Barrow Central Wheelers00:54:17
19331Buck LindsayMV50Cumberland Fell Runners00:54:21
194167Keith CarmanMV45Lancaster & Morecambe00:54:24
195292Diane ArmstrongFV35Bentham Beagles00:54:32
196343Ashleigh AtkinsonFUnattached00:54:33
197290Edward TysonMV70Unattached00:54:33
198242Tristan ReidMUnattached00:54:45
199319Barrie LaycockMV70Ambleside AC00:54:47
20086Val FlemingFV55Walney Wind Cheetahs00:54:56
201251Phil OwenMV45Elvet Striders00:55:00
202271Linda RaynerFV55Dewsbury RR00:55:14
203138Sadie WoodFUnattached00:55:20
204141Stephanie SharpFV45Unattached00:55:21
205192Sarah LawleyFV35Unattached00:55:24
206215Laura JonesFUnattached00:55:24
207145Vicky ArmstrongFV45Unattached00:55:32
208367Kalyani NuttFHoad Hill Harriers00:55:38
209337Rachel BradeFUnattached00:55:48
21092Sharon TaylorFV45Walney Wind Cheetahs00:55:54
21181Louis EllisMV35Walney Wind Cheetahs00:55:54
212280Christopher BellMV45Unattached00:55:54
213100Darran CurtisMV40Walney Wind Cheetahs00:55:55
21460Jane WoodleyFV65Unattached00:56:23
215355Roy BrownMV40Unattached00:56:29
216358Stephen LeverMUnattached00:56:30
217172John CassellsMV65Stowmarket Striders00:56:48
218230Allison McEwanFV35Unattached00:56:50
219166Anne CarmanFV55Lancaster WRG00:57:01
220135Karen WallbankFV45Unattached00:57:05
221198Anthony OrrMV50Unattached00:57:15
22279Vanessa HillFUnattached00:57:34
223336Carle ThompsonFV35Ulverston Tri00:57:38
224191Karen CavanaghFV45Cumberland AC00:57:40
225357Justin BatesMV40Walney Wind Cheetahs00:57:49
22652Neil KnightMV40Unattached00:57:49
227143Emily CrossleyFU20Unattached00:57:56
22872Karen BellFV40Walney Wind Cheetahs00:57:56
229364Emma TaylorFLeg it00:58:34
230286RG WilcockMV60Walney Wind Cheetahs00:58:45
231308Tony BradyMV65Manchester Harriers00:58:49
232142Lesley NelsonFV40Unattached00:58:59
233250Karl FurseyMV40Black Combe Runners00:59:21
234133Deborah YearnshireFV35Unattached00:59:23
235273Ann ButcherFV65Bentham Beagles00:59:28
236130Michelle EntwistleFV50Lancaster WRG00:59:29
237113Katie DixonFGB Bootcamps00:59:30
238189Angela StevensFV40Unattached00:59:35
23930John HollandMV55Unattached00:59:35
240212Rachael KnowlesFV40Unattached00:59:37
24137Trevor GrundyMV70Unattached00:59:41
242231Rachel MeaseFV45Unattached00:59:41
243348Trina GilchristFV45Unattached00:59:47
244112Kimberley HillFUnattached00:59:50
245300John McKnightMV40Parkside Panthers01:00:02
246227Aimee GoodingsFParkside Panthers01:00:08
247216Stephen WildMV45Unattached01:00:19
248303Rebecca ConnollyFV40Unattached01:00:20
249102Alice WhiteFParkside Panthers01:00:22
25095Joanne BarnardFV40Walney Wind Cheetahs01:00:33
251309Stephen NewbyMV45Duddon Dragons01:00:39
25299Linda VickersFWalney Wind Cheetahs01:00:44
253154Claire WelburnFV35Unattached01:00:49
254153Mark WalkerMV40Allithwaite + District01:00:49
255323Penny MoretonMV50Hoad Hill Harriers01:00:59
256171Joanna CassellsFV55Stowmarket Striders01:01:11
257256John HornbyMV65Unattached01:01:20
258197Karen DentFV40Unattached01:01:24
259155Lynda MorrisFV45Bentham Beagles01:01:25
26046Gareth TaylrMUnattached01:01:29
261111Daniel CannMUnattached01:01:29
262361Sally McAlindenFUnattached01:01:41
26350Jane LenzaFV55Dumfries Harriers01:01:45
26496Alison SheildsFWalney Wind Cheetahs01:01:53
265327Barry ChorleyMV40Ulverston Tri01:01:59
266372Ros LeadbeatterMV50Unattached01:02:38
267127Kerry McKennaFV35Unattached01:02:40
268108Nicola McMahonFV35Unattached01:02:40
269121Claire SollowayFV35Unattached01:02:40
2703Lynn TrussellFV55Unattached01:02:44
271291Zoe McDonaldFV40Bentham Beagles01:02:45
272363Emma HigginsFLeg it01:02:45
273366Natalie WarwichFUnattached01:02:56
27448Evelyn ElkingtonFV75Lancaster & Morecambe01:02:58
275224Michelle ShawFParkside Panthers01:02:58
27649Bernard ElkingtonMV75Red Rose Road Runners01:02:58
27776Claire GreenwoodFV55Walney Wind Cheetahs01:03:36
278302David FarishMV55Parkside Panthers01:04:07
27994Marie SullivanFV40Walney Wind Cheetahs01:04:22
28067Tom CarswellMUnattached01:04:26
28133Alison DoddFUnattached01:04:26
282150Karen RobinsonFV50Unattached01:04:47
28361Roger HartleyMV65Manchester Harriers01:05:25
284126Paula BrownFV45Unattached01:05:36
28562Mark GunnerMUnattached01:05:37
286193Patrcia DuffinFV35Unattached01:05:43
287236Connie BainbridgeFV45Unattached01:05:43
288104Kelly TaylorFWalney Wind Cheetahs01:05:50
289118Karlie ShawcrossFWalney Wind Cheetahs01:05:50
290248Gillian ThompsonFV70Barrow & Furness Striders AC01:06:48
291279Susie BarstowFV50Unattached01:07:26
292306Emma TuiameFDuddon Dragons01:07:32
29389Michlle McAveeneyFV45Walney Wind Cheetahs01:07:32
29454Kirsty TysonFV35Unattached01:07:58
295287Jackie WilcockFV40Walney Wind Cheetahs01:07:59
29655Ketchell GillFUnattached01:08:08
297107Jo HillenFV45Walney Wind Cheetahs01:09:20
298129Jacqui SandbachFV50Lancaster WRG01:09:58
299131Ruth HaughianFV55Walney Wind Cheetahs01:10:19
300125David BeeversMV55Unattached01:11:00
30180Debbie AbnettFV35Walney Wind Cheetahs01:11:27
302263Michaela NicholsonFV45Walney Wind Cheetahs01:12:12
303252Rob BerryMV75Langdale RC01:13:23
30488Lizzie KershawFV50Walney Wind Cheetahs01:14:47
30584Claire O'HaraFV40Walney Wind Cheetahs01:16:37
306209Valerie SimmFV50Unattached01:18:43
307196MH AbbottFV65Unattached01:18:43
30883Laura Jones-BarnesFWalney Wind Cheetahs01:18:55
30982June EllisFV60Walney Wind Cheetahs01:18:59
31098Kimberley EcclesFWalney Wind Cheetahs01:20:10
311123Imelda HattonFV45Unattached01:25:21
312105Samantha KnottFWalney Wind Cheetahs01:37:20
Pudding Fun Run 2013
PosNumNameCatClubTime
1139Jamie Gittins15Broughton Runners00:05:55
291Luke Turner14Hoad Hill Harriers00:05:55
3128Jake Cooper12Barrow Striders00:05:57
488Jack Turner12Hoad Hill Harriers00:06:32
593Connor O'Hara11Hoad Hill Harriers00:06:33
6125Harvey Cooper10Barrow Striders00:06:35
796Abigail Howie14Hoad Hill Harriers00:06:36
885Keenan Wright14Hoad Hill Harriers00:06:39
9140Olesia Winder8Unattached00:06:42
10129Meisha Mackinnon14Hoad Hill Harriers00:06:47
1173Kathryn 12Walney Wind Cheetahs00:07:40
1297Corey Bacon11Kendal00:07:42
13131Oliver Wilson12Unattached00:07:53
1487Helen Turner10Hoad Hill Harriers00:07:53
15130Seb Wilson12Unattached00:07:56
16137Louie Graham9Unattached00:08:23
1794Luke Simmonds7Unattached00:08:26
1895Ellie Simmonds10Unattached00:08:40
19138Roxama Gittins9Broughton Runners00:08:46
20142Oliver Whalley8Unattached00:09:00
21134Luke Brodie13Unattached00:09:06
22133Jake Brodie8Unattached00:09:06
23141Charlie Whalley5Unattached00:09:09
2486Kathryn Houston7Unattached00:09:20
25136Nia Atkins10Unattached00:09:27
26135Iona O'Reilly10Unattached00:09:32
27116Elliot York6Unattached00:09:57
2898Shane Kelly5Unattached00:10:21
29107Rio York5Unattached00:10:24
‚Äč